#timestamp,LO_Frequency,Hit,StdDev 
1657533615.7,286046996.8,N
1657533635.5,286046995.0,N
1657533655.4,286046999.5,N
1657533675.2,286046995.4,N
1657533695.0,286046993.8,N
1657533696.0,286046993.8,N
1657533715.8,286046992.4,N
1657533735.6,286046994.5,N
1657533755.5,286046992.9,N
1657533775.3,286046991.2,Y
1657533795.1,286046994.0,P
1657533815.9,286046992.9,P
1657533835.7,286046991.6,P
1657533855.6,286046990.7,Y
1657533875.4,286046999.1,P
1657533895.2,286047000.4,N
1657533915.1,286047003.8,N
1657533916.0,286047003.8,N
1657533935.8,286047002.2,N
1657533955.6,286047001.3,N
1657533975.5,286046999.8,N
1657533995.3,286047000.1,N
1657534015.2,286046998.6,N
1657534035.9,286046998.3,N
1657534055.7,286047001.2,N
1657534075.6,286046994.9,N
1657534095.4,286047001.0,N
1657534115.2,286047000.2,N
1657534135.1,286047004.5,N
1657534136.0,286047004.5,N
1657534155.8,286047001.8,N
1657534175.7,286047001.8,N
1657534195.5,286047002.7,N
1657534215.3,286047003.7,N
1657534235.2,286047001.3,N
1657534255.0,286047002.4,N
1657534255.9,286047002.4,N
1657534275.7,286047002.8,N
1657534295.6,286046998.5,N
1657534315.4,286046998.7,N
1657534335.3,286047000.3,N
1657534355.1,286047002.5,N
1657534356.0,286047002.5,N
1657534375.8,286047000.9,N
1657534395.7,286047002.3,N
1657534415.5,286047001.0,N
1657534435.3,286047002.1,N
1657534455.2,286047002.8,N
1657534475.0,286046999.4,N
1657534475.9,286046999.4,N
1657534495.8,286046999.9,N
1657534515.6,286046998.7,N
1657534535.4,286047003.7,N
1657534555.3,286047003.3,N
1657534575.1,286046999.7,N
1657534595.9,286047002.1,N
1657534615.7,286047001.5,N
1657534635.5,286047003.1,N
1657534655.4,286047004.4,N
1657534675.2,286047002.4,N
1657534695.0,286047002.5,N
1657534695.9,286047002.5,N
1657534715.8,286047003.4,N
1657534735.6,286047001.4,N
1657534755.5,286047001.8,N
1657534775.3,286047000.6,N
1657534795.1,286047002.7,N
1657534815.9,286047002.3,N
1657534835.7,286047000.3,N
1657534855.6,286046999.7,N
1657534875.4,286047001.9,N
1657534895.2,286047006.7,Y
1657534915.1,286047006.5,P
1657534916.0,286047006.5,N
1657534935.8,286047006.9,P
1657534955.6,286047006.0,N
1657534975.5,286047001.2,N
1657534995.3,286046998.2,N
1657535015.2,286047000.7,N
1657535035.9,286046998.7,N
1657535055.7,286046997.1,N
1657535075.6,286047001.1,N
1657535095.4,286046997.5,N
1657535115.2,286046993.7,N
1657535135.1,286046998.8,N
1657535136.0,286046998.8,N
1657535155.8,286046996.9,N
1657535175.7,286047003.6,N
1657535195.5,286047006.2,N
1657535215.3,286047009.2,N
1657535235.2,286047009.2,N
1657535255.0,286047004.8,N
1657535255.9,286047004.8,N
1657535275.7,286047005.4,N
1657535295.6,286047004.2,N
1657535315.4,286047002.1,N
1657535335.3,286047002.0,N
1657535355.1,286047004.8,N
1657535375.8,286047001.7,N
1657535395.7,286047002.7,N
1657535415.5,286047000.7,N
1657535435.3,286046999.2,N
1657535455.2,286046998.7,N
1657535475.0,286047000.9,N
1657535475.9,286047000.9,N
1657535495.8,286047004.3,N
1657535515.6,286047007.5,N
1657535535.4,286047004.9,N
1657535555.3,286047010.7,N
1657535575.1,286047007.8,N
1657535595.9,286047010.4,N
1657535615.7,286047007.6,N
1657535635.5,286047001.5,N
1657535655.4,286047007.6,N
1657535675.2,286047006.5,N
1657535695.1,286047008.1,N
1657535696.0,286047008.1,N
1657535715.8,286047006.6,N
1657535735.6,286047008.8,N
1657535755.5,286047008.8,N
1657535775.3,286047010.3,Y
1657535795.1,286047001.4,P
1657535815.9,286047003.8,N
1657535835.7,286047002.5,N
1657535855.6,286047001.0,N
1657535875.4,286046997.9,N
1657535895.2,286046996.0,N
1657535915.1,286046997.9,N
1657535916.0,286046997.9,N
1657535935.8,286046993.4,N
1657535955.7,286046990.6,N
1657535975.5,286046992.4,N
1657535995.3,286046996.3,N
1657536015.2,286046994.2,N
1657536035.0,286046992.1,N
1657536035.9,286046992.1,N
1657536055.8,286046996.8,N
1657536075.6,286047001.0,N
1657536095.4,286046999.7,N
1657536115.3,286047002.2,N
1657536135.1,286046998.7,N
1657536155.8,286046993.5,N
1657536175.7,286046996.9,N
1657536195.5,286046997.4,N
1657536215.4,286046996.8,N
1657536235.2,286046997.8,N
1657536255.0,286046995.3,N
1657536255.9,286046995.3,N
1657536275.8,286046993.5,N
1657536295.6,286046999.5,N
1657536315.4,286047000.6,N
1657536335.3,286047000.0,N
1657536355.1,286046997.9,N
1657536375.9,286046993.3,N
1657536395.7,286046993.2,N
1657536415.5,286046992.9,N
1657536435.4,286046993.3,N
1657536455.2,286046996.8,N
1657536475.0,286047000.9,N
1657536475.9,286047000.9,N
1657536495.8,286047001.9,N
1657536515.6,286046999.8,N
1657536535.5,286047002.2,N
1657536555.3,286047002.4,N
1657536575.1,286046998.3,N
1657536595.9,286047000.1,N
1657536615.7,286046999.3,N
1657536635.5,286047002.2,N
1657536655.4,286047004.0,N
1657536675.2,286047002.2,N
1657536695.1,286047001.2,N
1657536696.0,286047001.2,N
1657536715.8,286047000.5,N
1657536735.6,286046996.9,N
1657536755.5,286046998.6,N
1657536775.3,286046998.1,N
1657536795.1,286046996.5,N
1657536815.9,286046998.3,N
1657536835.7,286047001.6,N
1657536855.6,286047000.9,N
1657536875.4,286047001.1,N
1657536895.2,286046997.8,N
1657536915.1,286046997.7,N
1657536916.0,286046997.7,N
1657536935.8,286046996.3,N
1657536955.7,286046996.3,N
1657536975.5,286046993.3,N
1657536995.3,286046994.3,N
1657537015.2,286046990.2,Y
1657537035.0,286046991.9,P
1657537035.9,286046991.9,N
1657537055.7,286046994.6,N
1657537075.6,286046995.4,N
1657537095.4,286046995.9,N
1657537115.3,286046995.1,N
1657537135.1,286046998.0,N
1657537136.0,286046998.0,N
1657537155.8,286046999.1,N
1657537175.7,286047000.1,N
1657537195.5,286046996.9,N
